Regional Weather Roundup
Issued by NWS Cleveland, OH

Home | Current Version | Previous Version | Graphics & Text | Print | Product List | Glossary On
Versions: 1 2 3 4 5 6 7 8 9 10 11 12 13 14 15 16 17 18 19 20 21 22 23 24 25 26 27 28 29 30 31 32 33 34 35 36 37 38 39 40 41 42 43 44 45 46 47 48 49 50
000
ASUS41 KCLE 191302
RWRCLE
OHIO REGIONAL WEATHER ROUNDUP
NATIONAL WEATHER SERVICE CLEVELAND, OH
800 AM EST FRI DEC 19 2014

NOTE: "FAIR" INDICATES FEW OR NO CLOUDS BELOW 12,000 FEET WITH NO
SIGNIFICANT WEATHER AND/OR OBSTRUCTIONS TO VISIBILITY.

OHZ001>008-015>018-024>027-034-035-043-044-191400-
   NORTHWEST OHIO

CITY           SKY/WX    TMP DP  RH WIND       PRES   REMARKS
DEFIANCE       CLOUDY    29  24  82 VRB3      30.27R
FINDLAY        CLOUDY    29  24  82 W7        30.24R WCI  22
TOLEDO EXPRESS CLOUDY    29  25  85 NW5       30.25R WCI  24
TOLEDO EXEC    CLOUDY    30  25  81 W7        30.27R WCI  23
LIMA           CLOUDY    30  22  72 W8        30.25R WCI  22
$$

OHZ009>014-019>023-028>033-038-089-191400-
   NORTHEAST OHIO

CITY           SKY/WX    TMP DP  RH WIND       PRES   REMARKS
CLE-HOPKINS    FRZ DRZL  29  26  89 NW8       30.25R FOG     WCI  21
CLE-LAKEFRONT  CLOUDY    32  24  72 NW14      30.22R WCI  22
CUY CO. ARPT   CLOUDY    32  25  74 NW9       30.22R WCI  24
LORAIN-ELYRIA  CLOUDY    28  27  96 NW5       30.24R FOG     WCI  23
ASHTABULA      CLOUDY    29  23  78 NW8       30.19R WCI  21
AKRON-CANTON   LGT SNOW  28  27  93 NW7       30.20R VSB 1   WCI  21
WOOSTER        CLOUDY    28  26  92 NW9       30.22R FOG     WCI  19
MANSFIELD      CLOUDY    27  25  92 W6        30.21R FOG     WCI  20
YOUNGSTOWN     FLURRIES  28  26  92 NW8       30.18R WCI  20
$$

OHZ042-051>053-060>062-070>072-077>081-191400-
  SOUTHWEST OHIO

CITY           SKY/WX    TMP DP  RH WIND       PRES   REMARKS
CINC-COVINGTON CLOUDY    27  20  75 N3        30.26S
CINC-LUNKEN    CLOUDY    28  21  75 N5        30.30S WCI  23
HAMILTON       CLOUDY    28  21  75 NW5       30.29R WCI  23
DAYTON         CLOUDY    27  20  75 NW5       30.26R WCI  22
WRIGHT-PAT AFB CLOUDY    27  21  77 SW5       30.26S WCI  22
DAYTON GENERAL CLOUDY    26  20  77 N7        30.25R WCI  18
WILMINGTON     CLOUDY    26  19  74 N6        30.24S WCI  19
$$

OHZ036-037-039>041-045>050-054>059-063>069-073>076-082>088-191400-
  CENTRAL AND SOUTHEAST OHIO

CITY           SKY/WX    TMP DP  RH WIND       PRES   REMARKS
COLUMBUS       CLOUDY    28  21  75 W5        30.26R WCI  23
OSU AIRPORT    CLOUDY    28  22  78 W6        30.25R WCI  22
BOLTON FIELD   NOT AVBL
RICKENBACK AFB NOT AVBL
NEWARK         CLOUDY    29  23  78 W3        30.24R
MARION         CLOUDY    28  23  81 NW5       30.24R HAZE    WCI  23
LANCASTER      CLOUDY    29  23  78 CALM      30.26R
ZANESVILLE     CLOUDY    27  22  81 W3        30.24R
NEW PHILLY     CLOUDY    30  25  81 W3        30.23R
$$


USA.gov is the U.S. government's official web portal to all federal, state and local government web resources and services.